sat.trackr.live / text

‹ back to catalog

SBSS (USA 216)

NORAD 37168 · 2010-048A

PAYLOAD ACTIVE UNKNOWN

§ Identity

Operator
Country
US
Launch date
2010-09-26
Launch site
AFWTR
Launch vehicle
Mass (kg)
RCS (m²)
3.84

External: N2YO · Heavens-Above · Gunter

§ Orbital elements

Epoch: 2026-05-25T05:55:43.835232Z

Period
94.96 min
Inclination
97.7364°
Eccentricity
0.0079604
Mean motion
15.16374771 rev/d
Perigee alt
461.9 km
Apogee alt
571.7 km
Semi-major
6,894.9 km
B*
1.6330e-4
RAAN
30.2585°
Arg perigee
283.0400°
Mean anomaly
193.4312°
Rev number
84,899

§ Raw data

SBSS (USA 216)1 37168U 10048A   26145.24703513  .00003356  00000+0  16330-3 0  99932 37168  97.7364  30.2585 0079604 283.0400 193.4312 15.16374771848992

JSON: /api/v1/satellites/37168 · /tle

For live sub-satellite position, see the globe view (requires WebGL).

§ Visibility from observer

Set your observer location to see the next 7 days of passes ≥ 10°. The values pass through the URL so the page stays shareable.

No JS? Fill the form by hand. The geolocation button needs JavaScript.